Location: Unspecified
(0.0000°N, 0.0000°E)
Time: 14:08:26
(UTC+00:00)

Vela 2A - Visible Passes

Search period start: 28 November 2021 00:00
Search period end: 08 December 2021 00:00
Orbit: 16183 x 190298 km, 30.7° (Epoch: 26 November)

Date Brightness Start Highest point End Pass type
(mag) Time Alt. Az. Time Alt. Az. Time Alt. Az.
28 Nov ? 10:00:16 10° ENE 15:23:47 64° N 20:44:29 10° WNW visible
29 Nov ? 11:06:21 10° ENE 16:33:49 71° N 21:59:34 10° WNW visible
30 Nov ? 13:28:30 10° E 18:13:40 50° ESE 20:47:12 10° SE visible
01 Dec ? 07:06:54 10° ENE 13:03:42 58° N 18:39:57 10° WNW visible
02 Dec ? 09:30:02 10° ENE 14:53:55 63° N 20:14:43 10° WNW visible
03 Dec ? 10:36:33 10° ENE 16:02:21 69° N 21:26:05 10° WNW visible
04 Dec ? 12:16:58 10° E 18:23:14 89° N 17:49:19 10° WNW visible
06 Dec ? 08:58:18 10° ENE 14:23:06 62° N 19:44:19 10° WNW visible
07 Dec ? 10:07:30 10° ENE 15:32:10 68° N 20:54:35 10° WNW visible
